RH
74 75 77 81 82 83 83 84 84 83 82 80 78 77 77 78 77 76 76 75 71 69 70 74 76 75 72 70 67 64 62 60 61 62 64 65 67 68 70 72 74 76 78 78 78 77 76 75 73 71 70 68 67 66 65 64 64 65 66 66 67 68 68 69 69 69 69 69 71
77 78 81 82 82 82 82 82 83 83 82 81 79 80 81 80 79 78 77 77 73 72 74 78 78 76 73 70 67 65 62 61 62 64 66 67 68 70 72 73 75 76 77 77 76 75 73 71 69 67 65 64 62 62 62 63 64 65 66 67 68 69 69 70 69 68 68 68 70
82 83 84 84 83 82 81 80 80 80 80 79 81 82 83 82 81 80 79 77 75 76 78 80 79 77 73 70 67 65 63 62 64 66 67 69 70 71 72 73 74 75 75 74 73 71 70 68 66 64 62 59 59 59 60 62 63 64 64 65 65 66 66 66 65 64 63 62 64
84 84 84 85 85 84 82 79 78 77 77 78 81 83 83 84 83 81 79 77 79 80 82 82 81 78 73 69 66 64 63 64 65 67 69 71 72 72 73 73 73 73 72 71 70 68 67 66 64 62 59 57 56 56 57 58 58 58 58 59 59 60 60 60 59 58 56 54 54
78 79 82 85 85 84 83 83 80 78 78 80 82 83 84 84 83 81 81 81 85 86 86 85 82 78 73 68 65 64 63 64 67 69 71 73 73 74 74 73 73 72 71 70 69 67 65 63 61 58 56 54 54 53 53 53 54 55 55 56 56 56 56 55 54 53 52 51 51
72 73 76 79 80 82 83 83 83 84 86 88 88 89 89 86 84 84 86 89 90 90 89 86 82 77 72 67 65 64 64 66 69 71 73 74 74 74 74 74 74 73 72 71 69 66 64 62 61 59 57 56 55 56 57 60 61 62 61 60 58 56 55 53 53 52 52 52 53
70 71 71 72 74 77 81 82 85 88 91 91 92 92 92 91 91 91 91 92 92 91 89 86 82 77 72 67 65 65 66 69 72 73 75 75 75 75 75 74 74 73 72 69 66 63 60 58 56 55 56 58 60 61 62 62 60 58 58 58 57 57 57 56 56 55 55 57 61
72 72 71 71 72 76 79 82 85 87 89 89 90 91 91 92 92 92 91 92 91 90 89 87 83 79 74 70 68 68 70 72 74 76 76 77 76 76 75 75 75 74 71 67 62 58 55 52 50 48 47 46 46 44 43 42 43 45 48 50 51 53 54 55 55 55 56 58 57
74 73 72 72 73 75 78 79 81 85 88 90 90 90 91 92 91 90 90 92 91 91 90 89 86 82 78 73 72 72 73 75 77 78 78 78 78 78 78 78 77 74 70 64 60 56 53 50 49 48 47 47 46 45 43 42 42 43 45 47 49 50 50 50 50 50 49 48 44
75 74 72 72 73 74 75 76 77 79 82 85 86 87 88 89 88 88 89 91 91 91 91 91 89 85 81 77 76 76 76 78 78 79 79 80 81 81 81 80 77 72 67 63 59 55 52 49 47 46 45 43 42 40 38 37 36 35 35 35 38 41 42 42 41 40 39 37 36
76 74 72 72 71 71 72 72 73 74 76 78 79 81 83 84 84 85 87 91 92 92 92 92 90 87 84 79 78 78 79 79 79 79 80 80 81 81 79 76 72 68 65 62 60 57 53 48 45 43 41 39 37 35 33 32 31 30 30 30 31 32 33 34 34 34 33 33 32
75 73 71 70 70 69 69 69 70 71 72 75 77 80 82 84 85 87 89 91 92 92 92 92 91 89 86 82 81 80 80 80 80 80 80 80 79 76 73 70 67 65 65 65 63 60 54 48 44 41 38 36 33 32 30 30 29 29 29 29 30 31 32 32 32 31 31 30 30
72 70 68 68 68 67 67 67 69 71 74 78 81 83 85 86 88 88 89 90 91 91 91 90 90 89 87 84 83 82 81 81 81 81 80 78 75 72 68 66 66 66 67 65 62 57 50 44 41 38 36 33 31 30 29 29 29 29 29 29 30 30 30 30 30 30 30 30 30
66 64 64 64 65 66 66 68 71 75 79 82 85 87 88 88 88 89 89 91 91 91 90 89 88 88 87 85 84 83 82 81 80 79 77 74 72 70 69 69 69 67 64 59 54 49 44 41 38 35 33 32 30 29 28 28 28 28 28 28 28 28 28 28 28 28 28 29 29
58 58 59 61 63 65 67 70 74 78 82 84 86 88 89 89 89 90 91 92 92 91 90 89 88 88 87 85 84 82 80 79 77 75 74 74 75 74 73 72 67 61 54 49 45 42 39 36 34 32 31 30 29 28 28 27 27 27 27 27 27 27 27 27 27 27 27 28 28
54 54 56 59 62 65 68 71 75 79 82 86 88 88 88 89 90 91 92 92 92 91 89 89 89 89 87 84 81 78 77 76 77 78 80 82 80 76 70 63 56 51 46 43 40 37 35 33 31 30 29 29 28 27 27 26 26 25 25 25 25 25 25 26 26 27 28 29 30
54 55 56 60 63 66 69 73 76 80 85 88 89 89 89 90 92 92 92 92 91 89 89 90 90 89 86 82 78 76 76 78 79 81 82 81 77 71 63 55 50 46 42 39 37 35 33 32 31 30 28 28 27 26 26 25 24 24 24 24 25 25 26 27 28 29 31 32 34
58 59 60 63 67 70 73 76 80 84 88 91 90 90 91 91 91 91 91 91 91 90 90 91 89 86 82 77 73 71 71 72 71 70 68 67 65 62 57 52 48 43 40 38 36 34 33 32 31 30 29 28 27 26 25 24 24 25 25 26 27 28 29 31 32 34 35 37 38
66 65 66 68 71 74 78 82 86 89 91 92 91 91 91 91 91 91 91 91 91 91 91 88 85 80 74 69 65 63 61 60 59 57 55 54 53 51 49 47 44 41 39 37 36 35 33 32 32 30 29 28 27 26 26 26 26 27 28 30 31 33 34 35 36 38 39 40 41
72 71 71 73 76 81 85 89 90 91 91 91 91 91 91 91 91 91 90 90 89 89 87 85 80 74 69 63 59 57 55 53 52 51 50 49 48 47 46 44 43 41 39 38 36 35 34 33 32 31 30 29 28 28 29 29 30 32 33 34 35 36 38 39 39 40 41 42 43
76 76 76 79 83 87 89 90 90 90 89 88 88 88 89 89 89 89 89 88 86 85 82 80 76 72 66 61 57 55 53 52 51 50 49 48 47 46 45 44 43 41 40 38 37 35 34 33 32 31 31 30 31 31 32 33 34 36 36 37 38 39 40 41 42 42 43 44 45
80 81 83 86 89 89 89 89 89 89 89 89 89 88 88 88 87 87 86 85 82 79 77 74 70 66 62 58 56 54 53 52 51 50 48 47 47 46 45 44 43 41 40 38 36 35 34 33 32 32 32 33 34 35 36 37 38 39 39 40 41 42 43 43 44 44 44 45 46
86 87 88 90 90 90 89 88 88 88 88 88 86 85 84 83 82 81 80 78 75 73 70 67 64 61 58 56 55 53 52 51 50 49 48 47 46 45 44 43 42 40 39 37 36 34 34 34 34 34 35 36 37 38 39 40 41 42 43 43 44 45 45 45 45 45 46 47 48
88 88 88 88 88 87 87 85 84 83 82 81 80 79 78 77 75 74 73 71 69 66 64 62 60 58 56 55 54 53 52 50 49 48 46 45 44 43 42 41 40 38 37 35 34 34 35 35 36 37 38 39 41 42 43 44 44 45 45 46 46 46 47 47 47 47 47 48 49
83 83 83 83 83 82 81 80 79 78 77 77 76 76 75 73 72 70 68 66 64 62 60 59 57 56 55 54 53 51 50 48 47 46 45 44 43 42 41 40 38 37 36 35 36 36 37 38 40 41 42 43 45 46 47 47 47 48 48 48 47 47 48 48 48 47 47 48 49
75 75 76 76 77 77 77 76 76 76 76 75 75 74 72 71 69 66 65 63 61 59 58 57 56 55 54 53 51 49 48 46 45 45 44 43 42 41 40 39 38 38 38 38 39 40 41 42 44 45 46 47 48 49 49 49 50 49 49 49 48 48 48 48 48 48 48 49 49
70 70 70 71 72 73 74 74 74 73 73 72 71 69 68 66 65 63 62 60 59 58 56 55 54 52 51 50 49 47 46 45 44 43 43 42 41 41 40 40 41 41 42 43 44 45 46 47 48 49 50 50 50 51 51 51 50 50 50 49 49 49 49 48 48 48 48 48 48
68 68 68 68 69 70 70 70 70 69 68 66 65 64 63 62 61 60 59 57 56 55 54 53 52 51 49 48 47 46 45 44 43 43 42 42 43 43 44 45 45 46 47 47 48 49 50 51 52 52 52 52 52 51 51 51 51 51 50 50 49 49 48 48 48 48 48 48 48
63 64 64 64 65 65 64 64 64 63 63 62 61 61 60 59 59 58 57 56 55 54 52 51 50 49 48 47 46 45 45 44 44 44 45 46 47 47 48 49 50 50 51 52 53 53 54 54 54 54 54 53 52 52 52 52 51 51 50 49 49 48 48 47 47 48 47 48 48
59 59 59 60 60 61 61 61 61 62 62 62 62 62 61 61 60 58 57 55 54 52 51 50 49 48 47 47 47 47 47 48 48 49 50 51 51 52 52 52 53 54 55 55 56 56 56 56 55 55 54 53 52 52 51 51 50 49 49 48 47 47 47 47 47 48 48 48 48
60 61 61 61 62 62 63 63 64 64 65 65 64 63 62 61 59 58 56 55 53 52 51 51 50 50 50 51 51 52 52 53 53 53 54 54 55 55 56 56 57 57 58 58 58 58 58 57 56 55 53 52 51 50 50 49 48 47 46 46 46 46 47 47 48 49 49 49 49
66 66 66 66 66 66 66 65 65 65 64 64 63 62 61 60 59 58 57 56 56 55 54 54 54 55 55 56 56 57 57 57 57 57 57 58 58 58 59 59 59 60 60 60 59 59 58 57 55 53 52 50 49 48 47 46 46 45 45 45 46 46 47 48 48 49 50 50 50
68 68 67 66 65 65 64 64 63 62 62 61 61 60 60 60 60 60 60 60 60 60 60 59 59 59 59 60 60 60 60 60 60 60 60 60 61 61 61 62 62 61 61 60 59 58 57 55 53 51 49 47 46 45 45 44 44 44 45 45 46 47 48 49 49 50 50 51 51
66 65 64 63 63 62 62 61 61 61 61 61 61 61 61 62 62 62 62 63 63 63 63 63 62 62 62 62 62 62 62 62 62 62 62 62 63 63 63 63 62 61 60 59 57 56 54 52 50 48 46 45 44 44 44 44 45 45 46 47 48 49 49 50 50 51 51 52 53
63 63 62 61 61 61 61 61 61 62 62 62 62 63 63 63 64 64 65 65 65 65 65 65 65 65 64 64 63 63 63 63 63 63 63 63 63 63 62 61 60 58 57 56 54 52 51 49 47 46 45 44 44 45 45 46 47 48 49 49 50 51 51 52 52 53 53 54 55
62 62 62 62 62 62 62 62 63 63 63 63 64 64 64 65 65 66 66 67 67 67 66 65 65 64 64 63 63 62 62 62 62 62 61 61 61 60 59 58 57 55 54 52 51 49 48 47 46 46 45 46 46 47 49 50 50 51 51 52 53 53 53 54 54 55 55 56 56
63 63 63 63 64 64 64 64 64 64 65 65 65 66 66 67 67 67 68 68 67 67 66 65 64 63 62 62 61 61 60 60 60 59 59 58 57 57 56 55 53 52 51 50 49 48 47 47 47 47 48 49 50 51 51 51 52 52 52 52 53 53 53 53 54 54 54 54 55
65 65 65 66 66 66 66 66 66 66 66 67 67 68 68 68 68 68 68 67 67 66 66 65 64 63 62 61 61 60 60 59 59 59 58 57 56 55 55 54 52 51 50 49 49 48 48 49 49 50 50 51 51 51 50 50 50 50 50 50 50 50 50 50 50 50 50 50 51
66 67 67 68 68 68 68 67 68 68 68 68 69 68 68 68 68 67 67 67 66 66 65 64 64 63 62 61 60 59 59 59 59 59 58 58 57 56 55 54 53 52 51 50 50 50 51 51 52 52 51 50 49 48 47 47 46 46 46 47 46 46 46 46 46 46 47 47 48
68 69 69 69 69 69 69 69 69 69 69 69 68 67 67 66 66 66 66 66 66 65 64 63 62 61 60 59 59 58 58 58 58 58 58 58 57 57 55 54 53 52 52 52 52 52 52 52 52 50 49 48 46 45 44 44 43 44 44 44 44 44 44 44 45 45 46 47 49
69 69 70 70 70 70 70 70 69 69 68 67 66 65 64 64 64 64 64 65 64 63 62 61 60 59 58 58 58 58 58 58 58 58 58 58 57 56 55 54 54 54 54 53 53 53 52 51 50 49 48 46 45 44 44 43 43 42 43 43 44 44 45 45 46 47 48 49 51